Tracking 31027 objects as of 19-Jul-2025
HD Live streaming from Space Station
objects crossing your sky now

STARLINK-31121

Track STARLINK-31121 now!
10-day predictions
STARLINK-31121 is classified as:


NORAD ID: 58685
Int'l Code: 2023-211U
Perigee: 489.3 km
Apogee: 491.1 km
Inclination: 43.0 °
Period: 94.3 minutes
Semi major axis: 6861 km
RCS: Unknown
Launch date: December 29, 2023
Source: United States (US)
Launch site: AIR FORCE EASTERN TEST RANGE (AFETR)
Your satellite tracking list
Your tracking list is empty




NASA's NSSDC Master Catalog

Two Line Element Set (TLE):
1 58685U 23211U   25199.83339096  .00003162  00000-0  12434-3 0  9997
2 58685  42.9987 325.6050 0001307 276.2030  83.8673 15.27587619 86702
Source of the keplerian elements: AFSPC